Time,TemperatureF,DewpointF,PressureIn,WindDirection,WindDirectionDegrees,WindSpeedMPH,WindSpeedGustMPH,Humidity,HourlyPrecipIn,Conditions,Clouds,dailyrainin,SoftwareType,DateUTC
2013-02-18 00:02:00,53.1,41.2,31.31,NNW,334,4.0,21.0,64,0.00,,,0.00,Wunderground v.1.15,2013-02-18 06:02:00,
2013-02-18 00:08:00,53.0,41.5,31.31,NNE,27,4.0,21.0,65,0.00,,,0.00,Wunderground v.1.15,2013-02-18 06:08:00,
2013-02-18 00:14:00,53.1,41.6,31.31,North,355,5.0,21.0,65,0.00,,,0.00,Wunderground v.1.15,2013-02-18 06:14:00,
2013-02-18 00:19:00,53.0,41.9,31.31,NNE,19,5.0,21.0,66,0.00,,,0.00,Wunderground v.1.15,2013-02-18 06:19:00,
2013-02-18 00:25:00,52.9,39.4,31.31,NNW,336,4.0,21.0,60,0.00,,,0.00,Wunderground v.1.15,2013-02-18 06:25:00,
2013-02-18 00:31:00,52.9,40.6,31.31,NW,305,5.0,21.0,63,0.00,,,0.00,Wunderground v.1.15,2013-02-18 06:31:00,
2013-02-18 00:37:00,52.9,40.2,31.30,NE,50,5.0,21.0,62,0.00,,,0.00,Wunderground v.1.15,2013-02-18 06:37:00,
2013-02-18 00:42:00,53.0,40.3,31.30,North,352,4.0,21.0,62,0.00,,,0.00,Wunderground v.1.15,2013-02-18 06:42:00,
2013-02-18 00:48:00,53.1,40.8,31.30,NNE,27,5.0,21.0,63,0.00,,,0.00,Wunderground v.1.15,2013-02-18 06:48:00,
2013-02-18 00:54:00,53.0,40.7,31.30,NNE,25,5.0,21.0,63,0.00,,,0.00,Wunderground v.1.15,2013-02-18 06:54:00,
2013-02-18 01:00:00,53.0,41.5,31.30,NNE,33,5.0,5.0,65,0.00,,,0.00,Wunderground v.1.15,2013-02-18 07:00:00,
2013-02-18 01:06:00,52.9,40.2,31.30,North,4,4.0,21.0,62,0.00,,,0.00,Wunderground v.1.15,2013-02-18 07:06:00,
2013-02-18 01:12:00,52.9,39.4,31.30,NNE,23,5.0,21.0,60,0.00,,,0.00,Wunderground v.1.15,2013-02-18 07:12:00,
2013-02-18 01:18:00,52.9,40.2,31.29,NNW,340,5.0,21.0,62,0.00,,,0.00,Wunderground v.1.15,2013-02-18 07:18:00,
2013-02-18 01:24:00,52.8,40.1,31.29,NE,41,5.0,21.0,62,0.00,,,0.00,Wunderground v.1.15,2013-02-18 07:24:00,
2013-02-18 01:29:00,52.8,39.7,31.29,NNE,27,6.0,21.0,61,0.00,,,0.00,Wunderground v.1.15,2013-02-18 07:29:00,
2013-02-18 01:34:00,52.9,40.2,31.29,East,91,5.0,21.0,62,0.00,,,0.00,Wunderground v.1.15,2013-02-18 07:34:00,
2013-02-18 01:40:00,52.9,40.6,31.29,NE,39,4.0,21.0,63,0.00,,,0.00,Wunderground v.1.15,2013-02-18 07:40:00,
2013-02-18 01:45:00,52.9,40.2,31.29,NNW,347,5.0,21.0,62,0.00,,,0.00,Wunderground v.1.15,2013-02-18 07:45:00,
2013-02-18 01:50:00,52.9,39.8,31.29,NE,55,6.0,21.0,61,0.00,,,0.00,Wunderground v.1.15,2013-02-18 07:50:00,
2013-02-18 01:55:00,52.9,40.2,31.29,North,5,6.0,21.0,62,0.00,,,0.00,Wunderground v.1.15,2013-02-18 07:55:00,
2013-02-18 02:01:00,53.0,39.9,31.29,NNW,340,5.0,21.0,61,0.00,,,0.00,Wunderground v.1.15,2013-02-18 08:01:00,
2013-02-18 02:07:00,52.9,39.4,31.28,NNE,32,6.0,21.0,60,0.00,,,0.00,Wunderground v.1.15,2013-02-18 08:07:00,
2013-02-18 02:12:00,52.9,39.4,31.28,NE,47,6.0,7.0,60,0.00,,,0.00,Wunderground v.1.15,2013-02-18 08:12:00,
2013-02-18 02:18:00,53.0,39.5,31.28,West,280,6.0,21.0,60,0.00,,,0.00,Wunderground v.1.15,2013-02-18 08:18:00,
2013-02-18 02:24:00,53.0,39.9,31.28,NNW,338,6.0,21.0,61,0.00,,,0.00,Wunderground v.1.15,2013-02-18 08:24:00,
2013-02-18 02:30:00,53.1,40.8,31.28,North,355,6.0,6.0,63,0.00,,,0.00,Wunderground v.1.15,2013-02-18 08:30:00,
2013-02-18 02:36:00,53.1,40.8,31.28,NW,314,6.0,21.0,63,0.00,,,0.00,Wunderground v.1.15,2013-02-18 08:36:00,
2013-02-18 02:42:00,53.1,40.8,31.28,NNE,29,6.0,21.0,63,0.00,,,0.00,Wunderground v.1.15,2013-02-18 08:42:00,
2013-02-18 02:48:00,53.0,41.5,31.28,North,6,6.0,21.0,65,0.00,,,0.00,Wunderground v.1.15,2013-02-18 08:48:00,
2013-02-18 02:53:00,52.9,41.8,31.28,NE,50,6.0,21.0,66,0.00,,,0.00,Wunderground v.1.15,2013-02-18 08:53:00,
2013-02-18 02:59:00,52.9,42.6,31.28,North,5,5.0,21.0,68,0.00,,,0.00,Wunderground v.1.15,2013-02-18 08:59:00,
2013-02-18 03:05:00,52.8,42.1,31.28,NE,44,4.0,21.0,67,0.00,,,0.00,Wunderground v.1.15,2013-02-18 09:05:00,
2013-02-18 03:11:00,52.8,42.1,31.28,NNE,31,5.0,21.0,67,0.00,,,0.00,Wunderground v.1.15,2013-02-18 09:11:00,
2013-02-18 03:16:00,52.8,42.9,31.28,NNW,328,6.0,21.0,69,0.00,,,0.00,Wunderground v.1.15,2013-02-18 09:16:00,
2013-02-18 03:21:00,52.7,42.4,31.28,WNW,288,6.0,21.0,68,0.00,,,0.00,Wunderground v.1.15,2013-02-18 09:21:00,
2013-02-18 03:27:00,52.6,42.7,31.28,NNW,342,5.0,21.0,69,0.00,,,0.00,Wunderground v.1.15,2013-02-18 09:27:00,
2013-02-18 03:32:00,52.6,42.7,31.28,NNW,335,5.0,21.0,69,0.00,,,0.00,Wunderground v.1.15,2013-02-18 09:32:00,
2013-02-18 03:38:00,52.6,43.5,31.28,North,4,5.0,21.0,71,0.00,,,0.00,Wunderground v.1.15,2013-02-18 09:38:00,
2013-02-18 03:44:00,52.6,43.5,31.29,NNW,340,6.0,21.0,71,0.00,,,0.00,Wunderground v.1.15,2013-02-18 09:44:00,
2013-02-18 03:50:00,52.7,43.9,31.29,NNE,29,6.0,21.0,72,0.00,,,0.00,Wunderground v.1.15,2013-02-18 09:50:00,
2013-02-18 03:55:00,52.7,43.9,31.29,North,349,5.0,21.0,72,0.00,,,0.00,Wunderground v.1.15,2013-02-18 09:55:00,
2013-02-18 04:01:00,52.7,43.2,31.29,NW,308,6.0,21.0,70,0.00,,,0.00,Wunderground v.1.15,2013-02-18 10:01:00,
2013-02-18 04:07:00,52.7,43.9,31.29,NNE,29,6.0,21.0,72,0.00,,,0.00,Wunderground v.1.15,2013-02-18 10:07:00,
2013-02-18 04:13:00,52.7,44.3,31.30,NE,42,5.0,21.0,73,0.00,,,0.00,Wunderground v.1.15,2013-02-18 10:13:00,
2013-02-18 04:19:00,52.7,44.3,31.30,NNE,23,5.0,21.0,73,0.00,,,0.00,Wunderground v.1.15,2013-02-18 10:19:00,
2013-02-18 04:25:00,52.6,44.2,31.30,NNW,337,5.0,21.0,73,0.00,,,0.00,Wunderground v.1.15,2013-02-18 10:25:00,
2013-02-18 04:31:00,52.6,44.5,31.29,NW,314,5.0,21.0,74,0.00,,,0.00,Wunderground v.1.15,2013-02-18 10:31:00,
2013-02-18 04:36:00,52.6,44.2,31.30,NNW,335,5.0,21.0,73,0.00,,,0.00,Wunderground v.1.15,2013-02-18 10:36:00,
2013-02-18 04:42:00,52.5,44.4,31.29,NE,39,5.0,21.0,74,0.00,,,0.00,Wunderground v.1.15,2013-02-18 10:42:00,
2013-02-18 04:47:00,52.5,44.4,31.30,NNW,330,5.0,21.0,74,0.00,,,0.00,Wunderground v.1.15,2013-02-18 10:47:00,
2013-02-18 09:59:00,62.1,52.6,31.30,ENE,61,3.0,21.0,71,0.00,,,0.00,Wunderground v.1.15,2013-02-18 15:59:00,